Location: Newark
(3.0500°N, 36.0167°E)
Time: 01:32:50
(UTC+00:00)

Explorer 7 - All Passes

Search period start: 21 August 2019 00:00
Search period end: 31 August 2019 00:00
Orbit: 485 x 680 km, 50.3° (Epoch: 20 August)

Date Brightness Start Highest point End Pass type
(mag) Time Alt. Az. Time Alt. Az. Time Alt. Az.
21 Aug - 04:17:32 10° SSW 04:22:10 44° SE 04:26:50 10° NE daylight
21 Aug - 05:59:49 10° W 06:02:42 16° NW 06:05:34 10° NNW daylight
21 Aug - 16:19:38 10° NW 16:23:25 79° SW 16:27:09 10° SSE visible
22 Aug - 04:22:17 10° SW 04:27:10 88° ESE 04:32:05 10° NE daylight
22 Aug - 14:46:49 10° NNE 14:48:03 11° NE 14:49:16 10° ENE daylight
22 Aug - 16:25:01 10° WNW 16:28:25 31° SW 16:31:46 10° S visible
23 Aug - 02:49:07 10° SSE 02:51:44 14° SE 02:54:22 10° E visible
23 Aug - 04:27:31 10° SW 04:32:10 46° NW 04:36:52 10° NNE daylight
23 Aug - 14:49:58 10° N 14:53:09 24° NE 14:56:14 10° ESE daylight
23 Aug - 16:31:18 10° W 16:33:24 14° SW 16:35:30 10° SSW visible
24 Aug - 02:52:38 10° S 02:56:44 28° SE 03:00:54 10° ENE visible
24 Aug - 04:33:19 10° WSW 04:37:13 24° NW 04:41:08 10° N daylight
24 Aug - 14:54:23 10° NNW 14:58:10 56° NE 15:01:52 10° SE daylight
25 Aug - 02:57:01 10° SSW 03:01:43 55° SE 03:06:31 10° NE visible
25 Aug - 04:40:16 10° WNW 04:42:19 12° NW 04:44:21 10° NNW daylight
25 Aug - 14:59:22 10° NW 15:03:10 57° SW 15:06:52 10° SSE daylight
26 Aug - 03:01:55 10° SW 03:06:43 74° NW 03:11:37 10° NNE visible
26 Aug - 13:25:29 10° NNE 13:27:49 15° NE 13:30:06 10° E daylight
26 Aug - 15:04:58 10° WNW 15:08:09 24° SW 15:11:15 10° S daylight
27 Aug - 01:28:10 10° SSE 01:31:19 18° SE 01:34:32 10° E visible
27 Aug - 03:07:19 10° WSW 03:11:44 36° NW 03:16:14 10° NNE visible
27 Aug - 13:29:20 10° NNW 13:32:53 32° NE 13:36:20 10° ESE daylight
27 Aug - 15:11:57 10° WSW 15:13:08 11° SW 15:14:19 10° SW daylight
28 Aug - 01:32:02 10° S 01:36:18 34° SE 01:40:42 10° ENE visible
28 Aug - 03:13:23 10° W 03:16:48 19° NW 03:20:16 10° N visible
28 Aug - 13:33:57 10° NNW 13:37:55 77° NE 13:41:43 10° SE daylight
29 Aug - 01:36:36 10° SSW 01:41:17 70° SE 01:46:08 10° NE visible
29 Aug - 13:39:07 10° NW 13:42:54 43° SW 13:46:32 10° SSE daylight
30 Aug - 00:04:55 10° SE 00:05:54 11° SE 00:06:54 10° ESE visible
30 Aug - 01:41:39 10° SW 01:46:16 58° NW 01:51:04 10° NNE visible
30 Aug - 12:04:31 10° N 12:07:33 20° NE 12:10:29 10° E daylight
30 Aug - 13:44:58 10° WNW 13:47:52 19° SW 13:50:40 10° S daylight
